[[{"header":{"parameterUnit":"m.s-1","parameterCategory":1,"la1":30.2991,"la2":30.254,"lo1":-89.0895,"lo2":-89.0444,"dy":0.0017,"dx":0.0017,"nx":28,"ny":28,"refTime":"2025-04-06T21:00:00:Z","depth":0,"parameterNumber":2,"parameterNumberName":"U-component_of_WINDS"},"data":[0,0,0,0,0,0,0,0,0,0,0,0,0,0,0,0,0,0,0,0,0,0,0,0,0,0,0,0,0,0,0,0,0,0,0,0,0,0,0,0,0,0,0,0,0,0,0,0,0,0,0,0,0,0,0,0,0,0,3.1477,3.1478,0,3.1574,3.1575,3.1576,3.1572,3.157,3.1569,3.1567,3.1664,3.1668,3.1672,0,0,0,0,0,0,0,0,0,0,0,0,0,3.1287,3.1291,3.1477,3.1478,3.148,3.1574,3.1575,3.1576,3.1572,3.157,3.1568,3.1567,3.1663,3.1668,3.1672,0,0,0,0,0,0,0,0,0,0,0,0,0,3.1375,3.1292,3.1477,3.1489,3.1491,3.1573,3.1575,3.1577,3.1572,3.157,3.1568,3.1566,3.1661,3.1667,3.1673,3.1749,0,0,3.169,3.1693,0,0,0,0,0,0,0,0,3.137,3.1382,3.1486,3.1488,3.149,3.1559,3.1544,3.1635,3.1573,3.1541,3.1567,3.1565,3.1631,3.1639,3.1661,3.1754,3.1758,3.1691,3.1694,3.1697,3.1699,0,0,0,0,0,0,0,3.1364,3.1378,3.1515,3.1487,3.149,3.1489,3.1499,3.1561,3.1596,3.1544,3.1544,3.1555,3.1631,3.1656,3.1664,3.176,3.1691,3.1696,3.1699,3.1702,3.1921,3.1923,0,0,0,0,0,0,3.1356,3.1373,3.1512,3.1518,3.1424,3.1494,3.1505,3.1539,3.1595,3.1602,3.1557,3.1555,3.1647,3.1657,3.1667,3.1761,3.1697,3.1702,3.1706,3.1919,3.1922,3.1924,0,0,0,0,0,0,3.1352,3.1368,3.1508,3.1446,3.1463,3.1499,3.1537,3.1542,3.1566,3.1605,3.1612,3.1575,3.1646,3.1659,3.1729,3.1764,3.1705,3.171,3.1916,3.192,3.1923,3.1949,0,0,0,0,0,0,3.1346,3.1367,3.1396,3.1446,3.1467,3.157,3.1539,3.1545,3.1576,3.1574,3.1624,3.1631,3.1645,3.1721,3.1735,3.1771,3.1715,3.1913,3.1918,3.1922,3.1946,3.1953,3.196,0,0,0,0,0,3.134,3.1399,3.1398,3.1415,3.1505,3.1572,3.1583,3.1599,3.1579,3.1609,3.1635,3.1629,3.1758,3.1728,3.1744,3.1782,3.1911,3.1916,3.1922,3.1942,3.1952,3.196,0,0,0,0,0,0,3.1351,3.1406,3.1405,3.1483,3.1523,3.1571,3.1609,3.1609,3.1654,3.165,3.1668,3.1679,3.175,3.1773,3.1739,3.186,3.1832,3.1841,3.1842,3.1852,3.1859,3.1852,3.1719,0,0,0,0,0,3.1363,3.1413,3.1458,3.1523,3.1543,3.1573,3.1602,3.1611,3.1653,3.1669,3.17,3.174,3.179,3.1822,3.187,3.1949,3.196,3.1984,3.1991,3.1997,3.2004,3.2048,3.2059,3.1942,3.1942,3.1942,0,0,3.1388,3.1424,3.1454,3.1526,3.1558,3.1609,3.1587,3.1642,3.168,3.1678,3.1746,3.1771,3.1816,3.1892,3.1927,3.1913,3.2039,3.2004,3.2008,3.2012,3.2055,3.2066,3.2076,3.1945,3.1945,3.1944,0,0,3.1459,3.1491,3.1549,3.1582,3.1631,3.165,3.1664,3.1713,3.1729,3.1799,3.1799,3.1844,3.1929,3.1962,3.199,3.2076,3.2073,3.2091,3.2129,3.2172,3.2181,3.219,3.222,3.2231,3.2098,3.2098,3.2098,0,3.1482,3.1561,3.1578,3.1634,3.1666,3.1668,3.1726,3.1757,3.1819,3.184,3.1825,3.1933,3.1964,3.2048,3.2069,3.2092,3.2108,3.2085,3.2179,3.2187,3.2195,3.2225,3.2236,3.21,3.21,3.21,3.21,0,3.1588,3.1642,3.1683,3.1744,3.178,3.1837,3.1863,3.1898,3.1904,3.1925,3.1997,3.2034,3.209,3.2111,3.2117,3.2196,3.2187,3.2175,3.2147,3.2208,3.2236,3.2248,3.2103,3.2102,3.2102,3.2101,0,0,3.1667,3.1739,3.1753,3.1782,3.1837,3.1879,3.1936,3.1992,3.2022,3.2065,3.2113,3.2186,3.2176,3.2208,3.2218,3.2256,3.2322,3.224,3.2242,3.2254,3.2412,3.242,3.2433,3.2321,3.2323,3.2325,3.2408,0,3.1744,3.1846,3.1864,3.1954,3.2004,3.2007,3.2057,3.2097,3.2119,3.2164,3.2188,3.224,3.2223,3.2242,3.228,3.2306,3.2354,3.2301,3.2366,3.2368,3.2354,3.2448,3.2456,3.2533,3.2419,3.2421,3.2422,0,3.1847,3.1894,3.1988,3.2038,3.206,3.2104,3.2158,3.2202,3.2247,3.226,3.2296,3.2303,3.2362,3.2333,3.2415,3.2378,3.2406,3.2423,3.2427,3.2433,3.2398,3.2456,3.2557,3.2569,3.244,3.2438,3.2437,0,3.1895,3.1982,3.2051,3.2075,3.2134,3.2166,3.2192,3.2235,3.2268,3.2314,3.2336,3.2388,3.2417,3.2458,3.2478,3.2454,3.256,3.2531,3.2572,3.2572,3.2593,3.2591,3.27,3.2612,3.2612,3.2612,3.2611,0,3.1979,3.2036,3.2073,3.2115,3.218,3.2201,3.2264,3.229,3.2328,3.2375,3.2381,3.2425,3.245,3.2497,3.2513,3.258,3.2592,3.2605,3.2608,3.2604,3.2603,3.2622,3.2617,3.2615,3.2614,3.2613,3.2613,0,3.2043,3.2071,3.2145,3.2196,3.221,3.2256,3.23,3.234,3.2363,3.2422,3.2437,3.2472,3.2528,3.2553,3.2622,3.2633,3.2709,3.2709,3.2694,3.2695,3.2735,3.2731,3.286,3.2878,3.2778,3.2779,3.2779,0,3.2094,3.2139,3.2196,3.2228,3.2255,3.2307,3.2341,3.2364,3.2399,3.2454,3.2488,3.2545,3.2591,3.2681,3.2713,3.2766,3.2767,3.2809,3.2775,3.2769,3.2767,3.2764,3.2769,3.2814,3.2815,3.2816,3.2817,0,3.2182,3.2194,3.2243,3.2298,3.2339,3.2382,3.2425,3.2451,3.248,3.252,3.2578,3.2614,3.2685,3.2742,3.2797,3.2824,3.2825,3.2827,3.284,3.2835,3.2825,3.2831,3.271,3.2824,3.2823,3.2823,3.2822,3.2822,3.2242,3.2282,3.2329,3.2384,3.2419,3.2459,3.25,3.2528,3.2578,3.2638,3.2648,3.271,3.2755,3.283,3.2859,3.2908,3.2898,3.2915,3.292,3.2924,3.2926,3.2818,3.2918,3.2918,3.2918,3.2918,3.2918,0,3.233,3.2361,3.2411,3.2472,3.2515,3.2514,3.2562,3.2598,3.2653,3.2695,3.2741,3.2808,3.2864,3.29,3.2956,3.2988,3.299,3.3002,3.2999,3.3006,3.2932,3.2916,3.2999,3.2999,3.2999,3.2999,3.2999,3.2999,3.2381,3.2449,3.2467,3.2553,3.2583,3.2644,3.2672,3.2709,3.2743,3.2818,3.2864,3.2888,3.2929,3.2988,3.3038,3.3048,3.3068,3.308,3.3089,3.3019,3.3011,3.3002,3.2987,3.3084,3.3084,3.3158,3.3159,3.3159]},{"header":{"parameterUnit":"m.s-1","parameterCategory":1,"la1":30.2991,"la2":30.254,"lo1":-89.0895,"lo2":-89.0444,"dy":0.0017,"dx":0.0017,"nx":28,"ny":28,"refTime":"2025-04-06T21:00:00:Z","depth":0,"parameterNumber":3,"parameterNumberName":"V-component_of_WINDS"},"data":[0,0,0,0,0,0,0,0,0,0,0,0,0,0,0,0,0,0,0,0,0,0,0,0,0,0,0,0,0,0,0,0,0,0,0,0,0,0,0,0,0,0,0,0,0,0,0,0,0,0,0,0,0,0,0,0,0,0,-5.0997,-5.0998,0,-5.1101,-5.1102,-5.1103,-5.1049,-5.1046,-5.1044,-5.1041,-5.1147,-5.1152,-5.1157,0,0,0,0,0,0,0,0,0,0,0,0,0,-5.0751,-5.0756,-5.0996,-5.0998,-5.0999,-5.1101,-5.1102,-5.1103,-5.105,-5.1046,-5.1043,-5.104,-5.1145,-5.1151,-5.1158,0,0,0,0,0,0,0,0,0,0,0,0,0,-5.0857,-5.0757,-5.0996,-5.0985,-5.0984,-5.11,-5.1102,-5.1104,-5.105,-5.1046,-5.1042,-5.1038,-5.1143,-5.1151,-5.1159,-5.1292,0,0,-5.1183,-5.1187,0,0,0,0,0,0,0,0,-5.0851,-5.0866,-5.0985,-5.0986,-5.0986,-5.1058,-5.1054,-5.1167,-5.1051,-5.1025,-5.1041,-5.1036,-5.112,-5.113,-5.1159,-5.1296,-5.1301,-5.1184,-5.1189,-5.1192,-5.1195,0,0,0,0,0,0,0,-5.0843,-5.0861,-5.1038,-5.0987,-5.0987,-5.0974,-5.0985,-5.1075,-5.1095,-5.1027,-5.1024,-5.1037,-5.112,-5.1151,-5.1161,-5.1303,-5.1184,-5.1191,-5.1196,-5.1199,-5.1556,-5.156,0,0,0,0,0,0,-5.0837,-5.0855,-5.1034,-5.1041,-5.0907,-5.0982,-5.0994,-5.1039,-5.1094,-5.1098,-5.104,-5.1034,-5.1139,-5.1151,-5.1164,-5.1324,-5.1192,-5.12,-5.1205,-5.1551,-5.1557,-5.1562,0,0,0,0,0,0,-5.0832,-5.0853,-5.103,-5.0947,-5.0969,-5.0991,-5.1042,-5.1043,-5.1074,-5.1103,-5.1107,-5.1069,-5.1136,-5.1153,-5.1261,-5.1327,-5.1204,-5.1211,-5.1546,-5.1553,-5.156,-5.1645,0,0,0,0,0,0,-5.0825,-5.0852,-5.0902,-5.0949,-5.0973,-5.1125,-5.1046,-5.1048,-5.1088,-5.1081,-5.1131,-5.1135,-5.1134,-5.1249,-5.1269,-5.1336,-5.1217,-5.154,-5.1549,-5.1557,-5.1636,-5.1654,-5.1669,0,0,0,0,0,-5.0816,-5.0922,-5.0905,-5.0927,-5.1037,-5.1129,-5.1143,-5.114,-5.1094,-5.1145,-5.1164,-5.1133,-5.1317,-5.126,-5.1282,-5.1353,-5.1536,-5.1547,-5.1557,-5.1629,-5.165,-5.1668,0,0,0,0,0,0,-5.0882,-5.0927,-5.091,-5.1033,-5.1078,-5.112,-5.1184,-5.1163,-5.1221,-5.1212,-5.1206,-5.1218,-5.133,-5.1352,-5.1289,-5.1485,-5.1419,-5.1434,-5.1466,-5.1487,-5.1503,-5.1495,-5.1224,0,0,0,0,0,-5.0911,-5.0982,-5.1018,-5.1123,-5.1147,-5.1162,-5.1202,-5.1196,-5.1242,-5.126,-5.1287,-5.1332,-5.14,-5.1445,-5.1509,-5.1639,-5.165,-5.1699,-5.1715,-5.1728,-5.1742,-5.1813,-5.1836,-5.1596,-5.1596,-5.1596,0,0,-5.0971,-5.1005,-5.105,-5.1137,-5.1171,-5.1245,-5.1178,-5.1258,-5.1313,-5.1272,-5.1376,-5.1398,-5.1448,-5.1568,-5.1622,-5.159,-5.181,-5.1742,-5.1752,-5.1758,-5.1826,-5.1849,-5.1869,-5.1603,-5.1602,-5.1601,0,0,-5.1119,-5.1151,-5.1243,-5.1279,-5.1331,-5.1341,-5.1363,-5.1409,-5.1422,-5.1526,-5.1497,-5.1562,-5.1679,-5.1717,-5.1751,-5.1915,-5.1889,-5.1936,-5.2021,-5.2091,-5.211,-5.2127,-5.2186,-5.2207,-5.1949,-5.1949,-5.1949,0,-5.1187,-5.1297,-5.1293,-5.1377,-5.1416,-5.1383,-5.1477,-5.1511,-5.1582,-5.161,-5.1573,-5.172,-5.1752,-5.1881,-5.1921,-5.195,-5.1975,-5.193,-5.2108,-5.2124,-5.214,-5.2196,-5.2218,-5.1954,-5.1954,-5.1953,-5.1953,0,-5.1379,-5.1456,-5.1524,-5.1593,-5.1641,-5.1729,-5.1738,-5.1787,-5.1778,-5.1791,-5.1899,-5.1936,-5.2007,-5.2037,-5.2028,-5.2166,-5.2144,-5.2108,-5.2041,-5.2168,-5.2221,-5.2242,-5.1962,-5.196,-5.1959,-5.1957,0,0,-5.1569,-5.1637,-5.1662,-5.1694,-5.175,-5.1809,-5.1896,-5.1967,-5.2009,-5.2059,-5.2132,-5.2233,-5.22,-5.2239,-5.2235,-5.2296,-5.2425,-5.2252,-5.2253,-5.2283,-5.2579,-5.2606,-5.2631,-5.2408,-5.2412,-5.2416,-5.2575,0,-5.1721,-5.1873,-5.1873,-5.2013,-5.2085,-5.2056,-5.2132,-5.2175,-5.219,-5.2253,-5.227,-5.2342,-5.2293,-5.2317,-5.2376,-5.2396,-5.2484,-5.2385,-5.2476,-5.248,-5.2464,-5.2658,-5.2687,-5.2835,-5.2595,-5.2599,-5.2601,0,-5.1918,-5.1975,-5.2123,-5.217,-5.22,-5.2269,-5.2334,-5.2395,-5.2443,-5.245,-5.2495,-5.2482,-5.257,-5.2502,-5.2625,-5.2558,-5.2595,-5.2611,-5.2617,-5.2625,-5.2548,-5.2672,-5.2882,-5.2904,-5.2633,-5.2631,-5.2629,0,-5.2042,-5.2157,-5.2261,-5.2289,-5.2346,-5.2395,-5.2421,-5.2465,-5.2508,-5.2566,-5.2594,-5.266,-5.2697,-5.2749,-5.2754,-5.2704,-5.2878,-5.281,-5.2887,-5.2887,-5.2924,-5.2922,-5.3144,-5.2949,-5.2949,-5.2948,-5.2948,0,-5.2212,-5.2303,-5.2318,-5.2381,-5.2484,-5.2483,-5.2584,-5.2606,-5.2646,-5.2714,-5.2693,-5.2757,-5.276,-5.2826,-5.2831,-5.2932,-5.2949,-5.2957,-5.2957,-5.2959,-5.2958,-5.2983,-5.2973,-5.2954,-5.2953,-5.2952,-5.2951,0,-5.2368,-5.2381,-5.2492,-5.2538,-5.2552,-5.2625,-5.2664,-5.2725,-5.274,-5.2826,-5.2846,-5.2868,-5.2945,-5.2955,-5.3045,-5.3048,-5.317,-5.3159,-5.3154,-5.3152,-5.3229,-5.3222,-5.3475,-5.3508,-5.3291,-5.3293,-5.3295,0,-5.2475,-5.2545,-5.2599,-5.2643,-5.2672,-5.2743,-5.2787,-5.279,-5.2836,-5.2898,-5.2952,-5.3026,-5.3086,-5.321,-5.3234,-5.3303,-5.3294,-5.3378,-5.3304,-5.3304,-5.3296,-5.3291,-5.3299,-5.3392,-5.3394,-5.3396,-5.3398,0,-5.2664,-5.2667,-5.2731,-5.2799,-5.2852,-5.2905,-5.2955,-5.2993,-5.3001,-5.3055,-5.3134,-5.318,-5.3272,-5.3347,-5.3415,-5.3442,-5.3422,-5.3421,-5.3443,-5.3445,-5.3439,-5.3444,-5.3193,-5.3415,-5.3413,-5.3412,-5.3411,-5.341,-5.2799,-5.286,-5.2908,-5.2981,-5.3019,-5.3066,-5.3127,-5.3149,-5.3214,-5.329,-5.3287,-5.3374,-5.3422,-5.3511,-5.3544,-5.3611,-5.3584,-5.3615,-5.3623,-5.363,-5.3638,-5.3429,-5.3624,-5.3623,-5.3623,-5.3622,-5.3622,0,-5.2987,-5.3016,-5.3084,-5.3155,-5.3212,-5.3189,-5.3243,-5.3293,-5.337,-5.3416,-5.3476,-5.3567,-5.364,-5.367,-5.3742,-5.379,-5.3783,-5.3809,-5.3805,-5.3812,-5.3658,-5.3633,-5.3814,-5.3814,-5.3814,-5.3814,-5.3814,-5.3814,-5.3091,-5.3194,-5.3204,-5.3326,-5.3355,-5.344,-5.3473,-5.3517,-5.3554,-5.3657,-5.3717,-5.3737,-5.3778,-5.3852,-5.3918,-5.3925,-5.3953,-5.3983,-5.3986,-5.3842,-5.3823,-5.3804,-5.378,-5.3989,-5.3989,-5.4134,-5.4136,-5.4137]}]]